Location: Lacelle
(45.6423°N, 1.8247°E)
Time: 08:21:22
(UTC+00:00)

Daily predictions for brighter satellites

Satellite Brightness Start Highest point End
(mag) Time Altitude Azimuth Time Altitude Azimuth Time Altitude Azimuth
NOSS 2-1 (E) 3.6 17:16:51 10° S 17:19:58 37° ESE 17:23:10 10° NE
SJ 16-02 1.4 17:16:44 10° SSW 17:21:08 89° WNW 17:25:33 10° NNE
YAOGAN 1 4.0 17:19:58 10° ESE 17:22:48 17° ENE 17:25:38 10° NNE
Cosmos 1892 Rocket 3.9 17:19:10 10° SSW 17:23:28 68° W 17:27:48 10° N
NOAA 11 4.2 17:18:38 10° SSE 17:24:08 80° ENE 17:29:40 10° NNW
Meteor 2-10 Rocket 3.8 17:19:53 10° NNW 17:25:17 80° W 17:30:26 10° S
NOAA 12 4.4 17:22:05 10° S 17:27:18 75° WSW 17:32:34 10° NNW
Cosmos 1898 Rocket 3.9 17:24:21 10° S 17:29:20 45° ESE 17:34:19 10° NNE
Cosmos 923 Rocket 4.0 17:24:10 10° NNW 17:29:32 83° ENE 17:34:50 10° SSE
Cosmos 1939 Rocket 3.0 17:28:03 10° SSE 17:32:02 53° ENE 17:35:59 10° N
CZ-4C R/B 3.9 17:29:11 10° N 17:32:15 46° WNW 17:35:21 10° SSW
CZ-4C R/B 4.3 17:28:55 10° NW 17:32:43 17° N 17:36:58 10° NNE
H-2A R/B 3.3 17:29:26 10° S 17:33:30 58° W 17:37:45 10° NNW
Okean O Rocket 1.7 17:29:04 10° SSE 17:33:30 86° WSW 17:37:56 10° NNW
Cosmos 1680 Rocket 3.5 17:28:57 10° NNW 17:34:12 70° ENE 17:39:23 10° SSE
Meteor 1-21 Rocket 4.2 17:29:33 10° S 17:35:00 64° E 17:40:32 10° NNE
Cosmos 1812 Rocket 4.1 17:31:02 10° N 17:35:07 37° ENE 17:39:09 10° SE
Feng Yun 1-1 Rocket 4.3 17:33:05 10° SE 17:38:26 56° ENE 17:43:55 10° N
Cosmos 2344 4.4 17:32:32 10° NW 17:41:28 58° NE 17:53:46 10° ESE
Cosmos 1833 Rocket 3.2 17:36:38 10° NNW 17:41:49 36° NE 17:46:59 10° ESE
SMAP 4.0 17:37:51 10° S 17:42:23 52° W 17:46:57 10° NNW
Aureole 3 2.5 17:39:38 10° N 17:42:44 85° E 17:45:42 10° S
Okean-O 3.5 17:39:48 10° SE 17:43:33 28° ENE 17:47:20 10° N
SKYMED 2 3.8 17:40:18 10° NNE 17:44:31 48° E 17:48:43 10° S
CZ-4B R/B 1.4 17:45:07 10° NNE 17:48:22 53° E 17:51:31 10° S
Cosmos 1937 Rocket 3.7 17:48:22 10° S 17:53:31 54° ESE 17:58:42 10° NNE
COSMOS 2406 3.4 17:50:24 10° NNW 17:56:03 52° ENE 18:01:40 10° SE
MOS 1 Rocket 3.2 17:52:13 10° NNE 17:56:24 51° E 18:00:38 10° S
NOSS 3-1 (C) 4.1 17:49:23 10° NW 17:56:56 88° NE 18:05:39 10° SE
Cosmos 1703 3.1 17:53:18 10° S 17:57:10 80° E 18:01:04 10° N
Cosmos 1844 Rocket 3.7 17:53:05 10° SW 17:58:29 45° WNW 18:03:55 10° NNE
CZ-4 R/B 1.7 17:55:11 10° SE 17:58:58 40° ENE 18:02:42 10° N
H-2A R/B 2.4 17:54:17 10° SE 17:58:58 40° ENE 18:03:48 10° N
Cosmos 1844 4.4 17:53:41 10° SW 17:59:15 54° WNW 18:04:54 10° NNE
Cosmos 2082 Rocket 3.0 17:54:21 10° N 17:59:20 30° NE 18:03:50 12° ESE
NOSS 2-1 (C) 3.5 18:05:48 10° SW 18:09:04 52° NW 18:11:52 14° NNE
Cosmos 1092 Rocket 3.9 18:04:11 10° S 18:10:22 85° E 18:16:32 10° N
Cosmos 1626 Rocket 4.0 18:06:11 10° SSW 18:10:33 64° W 18:14:59 10° N
USA 290 2.5 18:07:54 10° N 18:10:58 41° ENE 18:13:03 17° SE
Cosmos 2112 Rocket 4.5 18:08:47 10° NNW 18:13:57 64° WSW 18:19:04 10° S
IRS-1C Rocket 4.0 18:09:31 10° SSE 18:14:47 82° ENE 18:20:04 10° NNW
NOSS 2-1 (D) 3.8 18:11:49 10° WSW 18:15:01 45° NW 18:17:38 15° NNE
ATLAS 5 CENTAUR R/B 4.2 18:14:48 10° NNW 18:16:14 11° N 18:17:44 10° N
USA 229 DEB 3.9 18:10:29 10° NW 18:17:51 87° NE 18:25:35 10° SE
USA 229 3.9 18:10:35 10° NW 18:17:56 86° NE 18:25:41 10° SE
Cosmos 1346 Rocket 3.0 18:15:10 10° SSE 18:18:53 43° E 18:21:32 18° NNE
CSL-04 Rocket 4.0 18:15:31 10° SE 18:20:37 42° ENE 18:25:48 10° N
ERS-2 2.0 18:20:15 11° NNE 18:23:47 71° ESE 18:27:25 10° S
TELKOM 3 4.3 18:23:36 10° NW 18:25:11 28° NNW 18:25:11 28° NNW
Cosmos 2278 Rocket 2.2 18:20:20 10° S 18:25:55 64° ESE 18:30:40 15° NNE
HJ-1C 4.2 18:27:14 32° NE 18:27:14 32° NE 18:29:33 10° N
PSLV R/B 3.9 18:23:52 10° NNE 18:28:06 70° ESE 18:32:17 10° S
SL-08 RB Rocket 4.2 18:28:05 29° ESE 18:29:20 34° ENE 18:33:23 10° N
Cosmos 1340 3.5 18:26:13 10° SSW 18:29:51 51° WNW 18:33:33 10° N
COSMO-SKYMED 1 3.3 18:28:21 10° N 18:32:36 53° WNW 18:36:49 10° SSW
NOSS 3-1 (A) 4.1 18:25:56 10° NW 18:33:30 89° SW 18:42:17 10° SE
Meteor 2-15 4.4 18:28:29 10° N 18:34:41 82° E 18:40:50 10° S
Cosmos-2242 2.9 18:30:28 10° N 18:34:47 83° E 18:39:06 10° S
Cosmos 1758 Rocket 3.6 18:32:11 10° S 18:36:38 83° W 18:41:09 10° N
Aureole 3 Rocket 3.1 18:33:47 10° NNW 18:37:00 61° W 18:40:57 10° S
ISS -2.4 18:36:04 10° WNW 18:39:04 28° N 18:39:13 28° N
SJ-11-01 4.1 18:34:28 10° SSE 18:39:09 80° ENE 18:43:51 10° N
CZ-2C R/B 3.9 18:34:48 10° S 18:40:08 57° W 18:45:47 10° NNW
Cosmos 1689 Rocket 2.1 18:43:53 72° WNW 18:43:54 72° WNW 18:46:43 10° SSW
Iridium 4 Rocket 3.8 18:38:45 10° N 18:44:08 67° W 18:49:00 10° S
SAR-Lupe-4 3.6 18:43:09 22° N 18:45:24 77° WNW 18:48:57 10° SSW
X-37B 1.0 18:43:54 10° W 18:47:01 54° SSW 18:47:04 54° SSW
ARGOS 3.0 18:42:03 10° SSE 18:47:23 75° ENE 18:52:47 10° N
Cosmos 2266 Rocket 4.2 18:43:52 10° SSE 18:49:41 43° E 18:55:26 10° NNE
USA 234 4.2 18:50:28 26° NE 18:52:59 34° N 18:58:44 10° NW
CZ-2C R/B 2.7 18:53:41 19° NNE 18:57:37 57° E 19:03:08 10° S
YAOGAN 1 3.3 18:54:16 10° S 18:58:30 53° W 19:02:44 10° NNW
Cosmos 1417 Rocket 4.4 18:53:10 10° N 18:59:26 87° E 19:05:45 10° S
SJ 16-02 4.2 18:58:46 10° WNW 19:00:24 12° NW 19:02:03 10° NNW
Helios 1A Rocket 3.4 18:58:15 10° S 19:02:20 62° WSW 19:06:28 10° NNW
Cosmos 1553 Rocket 4.1 18:56:22 10° N 19:02:47 79° W 19:09:04 10° S
Cosmos 1825 Rocket 4.3 19:04:47 10° SSW 19:09:03 51° WNW 19:13:23 10° N
Cosmos 468 4.3 19:08:31 10° NNW 19:13:48 80° ENE 19:14:33 65° SE
Cosmos 2150 Rocket 3.8 19:13:02 10° SSW 19:17:59 76° SE 19:17:59 76° SE
Cosmos 2315 Rocket 4.3 19:12:30 10° N 19:17:23 46° NE 19:17:23 46° NE
Okean-O 4.4 19:15:58 10° SSW 19:19:56 32° W 19:23:56 10° NNW
Cosmos 44 Rocket 3.4 19:16:11 10° SSW 19:20:30 67° S 19:20:30 67° S
Meteor 2-21 4.3 19:15:25 10° S 19:21:27 71° E 19:23:31 43° NNE
Cosmos 494 Rocket 4.4 19:17:27 10° NNW 19:21:16 47° N 19:21:16 47° N
Cosmos 883 Rocket 4.3 19:16:41 10° N 19:22:53 68° E 19:23:18 66° ESE
CZ-4C R/B 4.3 19:19:23 10° NNW 19:23:57 19° NNE 19:24:20 19° NNE
Cosmos 1048 Rocket 3.9 19:19:10 10° NNW 19:24:20 85° WSW 19:24:34 81° S
Cosmos 1833 Rocket 4.0 19:20:36 10° NW 19:25:45 38° WSW 19:30:53 10° S
Cosmos 1655 Rocket 3.9 19:21:26 10° S 19:27:39 83° W 19:33:54 10° N
S3M 4.1 19:22:34 10° NNW 19:28:40 71° W 19:34:45 10° S
Meteor 2-14 Rocket 4.2 19:24:22 10° S 19:30:26 79° E 19:31:02 71° NE
CZ-4 R/B 4.2 19:31:21 10° SW 19:34:09 18° W 19:36:55 10° NW
H-2A R/B 3.9 19:34:11 10° SSW 19:38:30 28° W 19:42:58 10° NW
In-Cosmos 22 Rocket 4.4 19:33:02 10° SSW 19:38:48 70° WNW 19:41:28 33° N
Cosmos 2082 Rocket 2.9 19:38:10 10° NW 19:43:41 51° WSW 19:45:48 34° SSW
Cosmos 2298 Rocket 4.4 19:39:54 10° SW 19:45:08 60° WNW 19:45:13 60° WNW
Cosmos 2278 Rocket 4.1 20:05:51 10° WSW 20:10:28 25° NW 20:12:34 20° NNW
ATLAS 2AS CENTAUR R/B 4.4 20:27:38 10° NNW 20:31:41 24° N 20:31:41 24° N
USA 234 4.4 20:37:48 36° NNW 20:37:48 36° NNW 20:41:37 10° NW
